Location: Poughquag
(41.6090°N, 73.6820°W)
Time: 02:55:08
(UTC-04:00)

Vanguard 1 - Pass Details

Date: 29 May 2020
Orbit: 650 x 3833 km, 34.2° (Epoch: 06 July)

Event Time Altitude Azimuth Distance (km) Brightness Sun altitude
Rises 12:12:57 0° 281° (WNW) 7,851 14.5 68.5°
Reaches altitude 10° 12:18:27 10° 277° (W) 6,924 14.4 68.9°
Maximum altitude 12:40:07 50° 212° (SSW) 4,024 14.5 70.0°
Drops below altitude 10° 12:55:44 10° 143° (SE) 5,126 14.1 70.1°
Sets 12:59:07 0° 138° (SE) 5,769 14.2 70.1°
